Total_Precipitation_Accumulation
0.00 0.00 0.00 0.00 0.00 0.00 0.00 0.00 0.00 0.01 0.01 0.02 0.04 0.04 0.02 0.02 0.03 0.11 0.04 0.02 0.01 0.00 0.00 0.00 0.01 0.02 0.02 0.01 0.02 0.03 0.04 0.04 0.04 0.04 0.03 0.03 0.03 0.02 0.02 0.03 0.06 0.09 0.10 0.08 0.07 0.06 0.06 0.04 0.02
0.00 0.00 0.00 0.00 0.00 0.00 0.00 0.00 0.01 0.01 0.03 0.04 0.03 0.01 0.00 0.00 0.00 0.00 0.01 0.01 0.00 0.00 0.00 0.00 0.00 0.02 0.02 0.01 0.01 0.02 0.03 0.03 0.03 0.03 0.03 0.03 0.03 0.03 0.04 0.06 0.10 0.15 0.18 0.19 0.15 0.12 0.10 0.07 0.03
0.00 0.00 0.00 0.00 0.00 0.00 0.00 0.01 0.02 0.01 0.02 0.03 0.02 0.00 0.00 0.00 0.00 0.00 0.00 0.00 0.00 0.00 0.00 0.00 0.00 0.01 0.01 0.01 0.01 0.02 0.03 0.03 0.04 0.04 0.04 0.04 0.04 0.04 0.06 0.10 0.14 0.20 0.22 0.21 0.19 0.17 0.15 0.08 0.02
0.00 0.00 0.00 0.00 0.00 0.00 0.01 0.02 0.03 0.02 0.02 0.02 0.01 0.00 0.00 0.00 0.00 0.00 0.01 0.01 0.00 0.00 0.00 0.00 0.01 0.01 0.01 0.01 0.00 0.02 0.03 0.05 0.06 0.08 0.08 0.07 0.07 0.07 0.11 0.18 0.23 0.22 0.22 0.23 0.24 0.23 0.18 0.10 0.04
0.00 0.00 0.00 0.00 0.00 0.00 0.01 0.02 0.03 0.03 0.02 0.01 0.00 0.00 0.00 0.00 0.00 0.00 0.01 0.01 0.01 0.01 0.00 0.00 0.01 0.01 0.01 0.01 0.02 0.04 0.06 0.09 0.13 0.16 0.15 0.12 0.11 0.11 0.15 0.22 0.25 0.25 0.29 0.29 0.27 0.21 0.14 0.06 0.04
0.00 0.00 0.00 0.00 0.00 0.00 0.00 0.01 0.02 0.02 0.02 0.01 0.01 0.01 0.01 0.00 0.00 0.00 0.01 0.01 0.02 0.01 0.01 0.01 0.03 0.03 0.02 0.02 0.03 0.06 0.09 0.12 0.14 0.15 0.14 0.12 0.11 0.12 0.16 0.19 0.20 0.23 0.24 0.19 0.12 0.08 0.06 0.05 0.05
0.00 0.00 0.00 0.00 0.00 0.00 0.00 0.01 0.01 0.02 0.02 0.02 0.01 0.01 0.01 0.00 0.00 0.00 0.00 0.02 0.04 0.05 0.06 0.05 0.06 0.04 0.02 0.03 0.04 0.05 0.06 0.06 0.09 0.11 0.11 0.10 0.09 0.09 0.11 0.11 0.13 0.14 0.10 0.06 0.05 0.03 0.03 0.03 0.02
0.00 0.00 0.00 0.00 0.00 0.00 0.01 0.01 0.02 0.02 0.03 0.02 0.01 0.01 0.01 0.00 0.00 0.00 0.02 0.07 0.12 0.18 0.16 0.04 0.02 0.02 0.01 0.01 0.01 0.02 0.03 0.03 0.05 0.07 0.07 0.07 0.07 0.07 0.07 0.07 0.07 0.09 0.08 0.05 0.03 0.01 0.01 0.01 0.00
0.00 0.00 0.00 0.00 0.00 0.00 0.00 0.01 0.02 0.03 0.02 0.01 0.01 0.01 0.01 0.01 0.00 0.01 0.04 0.09 0.11 0.09 0.06 0.02 0.01 0.01 0.00 0.01 0.00 0.00 0.01 0.01 0.03 0.04 0.05 0.06 0.07 0.07 0.06 0.04 0.05 0.07 0.06 0.02 0.01 0.00 0.00 0.00 0.00
0.00 0.00 0.00 0.00 0.00 0.00 0.00 0.01 0.02 0.02 0.01 0.01 0.01 0.02 0.02 0.01 0.01 0.04 0.10 0.14 0.10 0.05 0.03 0.02 0.01 0.00 0.00 0.00 0.01 0.01 0.01 0.01 0.03 0.06 0.03 0.07 0.10 0.10 0.07 0.04 0.04 0.04 0.02 0.01 0.00 0.00 0.00 0.00 0.00
0.00 0.00 0.00 0.00 0.00 0.00 0.00 0.01 0.03 0.02 0.02 0.02 0.04 0.06 0.04 0.02 0.02 0.05 0.09 0.14 0.20 0.18 0.04 0.02 0.01 0.01 0.01 0.00 0.00 0.00 0.01 0.01 0.03 0.05 0.04 0.07 0.06 0.06 0.06 0.04 0.01 0.01 0.01 0.00 0.00 0.00 0.00 0.00 0.00
0.00 0.00 0.00 0.00 0.00 0.00 0.00 0.00 0.01 0.01 0.02 0.04 0.07 0.10 0.08 0.03 0.03 0.06 0.08 0.06 0.07 0.05 0.01 0.01 0.01 0.01 0.01 0.00 0.00 0.01 0.01 0.01 0.02 0.02 0.02 0.04 0.06 0.07 0.11 0.07 0.03 0.02 0.02 0.01 0.01 0.00 0.00 0.00 0.00
0.00 0.00 0.00 0.00 0.00 0.00 0.00 0.00 0.00 0.01 0.01 0.03 0.03 0.03 0.03 0.01 0.02 0.04 0.05 0.06 0.04 0.02 0.01 0.01 0.01 0.00 0.00 0.00 0.00 0.01 0.01 0.01 0.01 0.02 0.02 0.03 0.05 0.07 0.08 0.04 0.03 0.02 0.02 0.01 0.01 0.00 0.00 0.00 0.00
0.00 0.00 0.00 0.00 0.00 0.00 0.00 0.00 0.00 0.00 0.00 0.01 0.01 0.02 0.02 0.02 0.03 0.08 0.11 0.10 0.09 0.04 0.01 0.01 0.00 0.00 0.00 0.00 0.00 0.00 0.01 0.02 0.02 0.03 0.02 0.02 0.04 0.08 0.07 0.04 0.04 0.02 0.02 0.01 0.01 0.00 0.00 0.00 0.00
0.00 0.00 0.00 0.00 0.00 0.00 0.00 0.00 0.00 0.00 0.00 0.00 0.00 0.01 0.02 0.03 0.04 0.08 0.11 0.09 0.12 0.05 0.01 0.01 0.01 0.01 0.00 0.00 0.01 0.01 0.02 0.04 0.06 0.06 0.04 0.03 0.03 0.04 0.04 0.04 0.05 0.03 0.03 0.03 0.03 0.02 0.02 0.01 0.01
0.00 0.00 0.00 0.00 0.00 0.00 0.00 0.00 0.00 0.00 0.00 0.00 0.00 0.00 0.01 0.02 0.03 0.05 0.08 0.09 0.11 0.07 0.03 0.02 0.01 0.02 0.01 0.02 0.02 0.02 0.03 0.05 0.05 0.05 0.04 0.03 0.03 0.04 0.06 0.08 0.09 0.09 0.09 0.09 0.08 0.07 0.06 0.07 0.06
0.00 0.00 0.00 0.00 0.00 0.00 0.00 0.00 0.00 0.00 0.00 0.00 0.00 0.00 0.00 0.01 0.02 0.05 0.08 0.11 0.16 0.12 0.07 0.03 0.02 0.02 0.04 0.05 0.04 0.05 0.05 0.05 0.06 0.07 0.07 0.08 0.09 0.11 0.15 0.18 0.20 0.21 0.19 0.18 0.17 0.16 0.14 0.12 0.10
0.00 0.00 0.00 0.00 0.00 0.00 0.00 0.00 0.00 0.00 0.00 0.00 0.00 0.00 0.00 0.00 0.02 0.05 0.11 0.21 0.27 0.21 0.13 0.08 0.07 0.06 0.07 0.07 0.07 0.10 0.11 0.14 0.19 0.22 0.25 0.26 0.28 0.30 0.33 0.32 0.33 0.32 0.28 0.26 0.22 0.18 0.15 0.12 0.10
0.00 0.00 0.00 0.00 0.00 0.00 0.00 0.00 0.00 0.00 0.00 0.00 0.00 0.00 0.00 0.01 0.02 0.07 0.18 0.23 0.23 0.19 0.14 0.13 0.18 0.16 0.15 0.17 0.21 0.32 0.41 0.52 0.61 0.68 0.70 0.65 0.59 0.58 0.55 0.51 0.49 0.44 0.39 0.35 0.29 0.22 0.17 0.14 0.11
0.00 0.00 0.00 0.00 0.00 0.00 0.00 0.00 0.00 0.00 0.00 0.00 0.00 0.00 0.01 0.02 0.03 0.09 0.18 0.25 0.24 0.24 0.18 0.15 0.17 0.24 0.33 0.45 0.66 0.84 0.98 1.16 1.29 1.31 1.16 1.02 0.95 0.88 0.82 0.77 0.72 0.63 0.55 0.46 0.37 0.29 0.21 0.14 0.09
0.00 0.00 0.00 0.00 0.00 0.00 0.00 0.00 0.00 0.00 0.00 0.00 0.00 0.00 0.01 0.02 0.04 0.08 0.15 0.22 0.26 0.24 0.24 0.25 0.32 0.48 0.66 0.85 1.08 1.24 1.44 1.59 1.62 1.51 1.35 1.25 1.20 1.15 1.05 0.94 0.84 0.73 0.63 0.53 0.41 0.28 0.17 0.10 0.04
0.00 0.00 0.00 0.00 0.00 0.00 0.00 0.00 0.00 0.00 0.00 0.00 0.00 0.00 0.00 0.01 0.03 0.08 0.13 0.21 0.26 0.28 0.32 0.39 0.53 0.78 0.99 1.20 1.44 1.72 1.94 1.96 1.87 1.66 1.46 1.36 1.26 1.08 0.94 0.90 0.84 0.72 0.56 0.41 0.27 0.16 0.08 0.04 0.02
0.00 0.00 0.00 0.00 0.00 0.00 0.00 0.00 0.00 0.00 0.00 0.00 0.00 0.00 0.01 0.01 0.02 0.07 0.12 0.20 0.29 0.33 0.38 0.49 0.71 1.06 1.38 1.75 2.01 2.15 2.07 1.90 1.69 1.45 1.26 1.10 0.97 0.86 0.78 0.73 0.64 0.50 0.34 0.20 0.11 0.06 0.03 0.01 0.01
0.00 0.00 0.00 0.00 0.00 0.00 0.00 0.00 0.00 0.00 0.00 0.00 0.01 0.01 0.02 0.02 0.03 0.07 0.12 0.21 0.33 0.47 0.57 0.69 0.93 1.30 1.60 1.81 1.91 1.76 1.54 1.40 1.20 0.98 0.82 0.67 0.57 0.50 0.43 0.34 0.26 0.19 0.12 0.06 0.03 0.02 0.01 0.01 0.01
0.00 0.00 0.00 0.00 0.00 0.00 0.00 0.00 0.00 0.00 0.00 0.01 0.01 0.02 0.02 0.03 0.04 0.09 0.14 0.22 0.38 0.55 0.69 0.83 0.96 1.12 1.25 1.32 1.32 1.17 1.00 0.83 0.67 0.54 0.45 0.36 0.28 0.23 0.18 0.12 0.08 0.05 0.03 0.02 0.01 0.01 0.00 0.00 0.00
0.00 0.00 0.00 0.00 0.00 0.00 0.00 0.00 0.00 0.01 0.01 0.01 0.02 0.02 0.03 0.05 0.08 0.12 0.20 0.28 0.42 0.56 0.67 0.71 0.77 0.82 0.79 0.71 0.65 0.57 0.47 0.41 0.36 0.30 0.25 0.19 0.15 0.11 0.07 0.05 0.03 0.02 0.02 0.01 0.01 0.00 0.00 0.00 0.00
0.00 0.00 0.00 0.00 0.00 0.00 0.00 0.00 0.00 0.01 0.02 0.02 0.02 0.03 0.06 0.09 0.13 0.16 0.23 0.30 0.37 0.42 0.46 0.46 0.45 0.44 0.41 0.35 0.30 0.26 0.24 0.23 0.19 0.14 0.11 0.08 0.06 0.05 0.03 0.02 0.02 0.01 0.01 0.00 0.00 0.00 0.00 0.00 0.00
0.00 0.00 0.00 0.00 0.00 0.00 0.00 0.00 0.00 0.01 0.02 0.03 0.04 0.05 0.09 0.15 0.19 0.21 0.24 0.27 0.29 0.29 0.29 0.29 0.26 0.25 0.23 0.21 0.19 0.16 0.14 0.12 0.09 0.07 0.06 0.05 0.03 0.03 0.02 0.02 0.01 0.01 0.00 0.00 0.00 0.00 0.00 0.00 0.00
0.00 0.00 0.00 0.00 0.00 0.00 0.00 0.00 0.00 0.01 0.02 0.03 0.04 0.07 0.14 0.20 0.23 0.28 0.29 0.24 0.22 0.20 0.20 0.20 0.19 0.17 0.14 0.12 0.10 0.09 0.08 0.06 0.05 0.04 0.03 0.02 0.02 0.01 0.01 0.00 0.00 0.00 0.00 0.00 0.00 0.00 0.00 0.01 0.01
0.00 0.00 0.00 0.00 0.00 0.00 0.00 0.01 0.01 0.02 0.03 0.03 0.06 0.14 0.22 0.24 0.26 0.29 0.27 0.21 0.20 0.19 0.19 0.17 0.13 0.11 0.09 0.07 0.05 0.05 0.04 0.03 0.03 0.02 0.02 0.01 0.01 0.01 0.00 0.00 0.00 0.00 0.00 0.01 0.01 0.01 0.02 0.03 0.03